Wind_Speed
14 13 13 15 15 15 15 14 14 13 13 14 15 15 16 17 17 7 6 5 2 4 3 2 3 3 2 1 2 1 1 3 2 1 3 6 7 5 4 9 3 3 3 8 27
14 15 15 16 16 15 15 15 14 13 14 14 15 16 16 19 10 8 5 10 7 6 3 3 2 1 1 1 1 0 2 1 1 2 0 3 7 10 4 8 4 5 10 24 27
15 16 16 16 16 16 16 15 15 14 14 14 15 15 16 13 3 1 4 11 9 9 5 3 2 1 0 0 1 1 1 1 1 3 2 1 8 10 7 9 10 12 17 21 25
17 17 17 17 17 17 16 16 15 14 14 14 14 14 15 4 1 2 5 13 10 9 4 4 2 1 1 2 0 3 5 3 1 3 2 3 5 6 12 2 3 14 22 21 20
19 19 18 19 18 17 17 16 15 14 13 13 12 11 5 3 4 4 12 12 11 9 5 3 2 1 1 3 3 3 3 4 6 6 7 5 8 5 9 3 12 18 20 21 20
20 20 21 21 21 19 17 16 15 14 13 12 9 7 2 4 4 4 14 11 9 7 3 0 2 1 1 3 3 7 10 12 5 3 5 3 1 7 3 11 16 19 20 20 21
22 22 22 23 23 21 19 17 16 14 13 10 5 3 2 8 3 9 11 9 8 4 3 3 2 3 4 4 5 6 7 5 1 3 5 9 3 7 10 14 17 17 17 18 19
23 23 23 23 23 23 21 18 16 14 10 5 2 0 6 3 4 11 11 5 4 6 1 2 1 1 3 5 1 2 1 5 4 1 1 6 3 2 13 15 15 16 16 18 20
24 25 25 23 24 24 21 16 12 4 2 3 1 1 5 3 3 8 10 4 6 3 1 3 2 1 2 3 2 5 3 7 4 3 2 4 7 5 10 13 13 16 17 18 18
26 26 25 24 26 26 19 8 2 3 3 2 0 3 4 2 2 4 11 6 4 4 4 3 1 0 1 3 4 5 4 5 8 1 3 6 16 2 9 14 14 14 15 17 19
28 27 26 25 26 25 11 1 2 2 3 5 2 2 2 4 2 3 6 9 2 2 2 2 0 2 4 4 5 5 4 7 5 5 3 5 10 13 6 11 12 14 16 17 19
29 29 26 25 25 13 4 1 5 2 6 8 11 8 7 2 2 3 12 8 7 6 4 2 5 5 3 3 4 1 2 4 6 6 2 2 5 8 5 7 10 14 17 19 17
29 29 26 24 20 3 7 3 1 4 3 5 5 6 5 10 6 6 13 8 5 7 7 5 2 7 2 2 3 2 6 8 3 5 2 5 3 4 1 5 4 10 14 17 20
30 30 26 23 4 9 2 4 14 8 3 4 5 5 7 7 5 8 18 6 4 8 7 6 2 2 2 3 1 3 1 8 7 4 4 6 6 5 3 8 5 7 10 15 18
32 31 25 17 12 3 3 8 5 2 3 4 3 2 3 11 7 7 8 3 10 8 6 3 4 4 4 1 1 2 4 3 2 1 2 1 4 4 4 4 13 13 12 9 12
34 30 24 8 7 5 6 5 2 1 6 1 4 6 10 5 5 5 6 1 2 5 1 3 1 4 3 3 5 1 3 2 2 2 4 1 3 2 1 4 11 14 16 17 13
36 27 17 8 2 2 8 2 2 4 2 2 2 5 9 8 7 6 10 11 9 6 9 5 7 4 3 4 3 5 1 4 4 4 4 4 5 6 7 3 7 16 20 18 17
36 24 9 10 3 4 3 2 4 2 4 2 1 3 10 8 9 5 7 11 2 3 2 6 8 8 7 8 4 5 3 5 7 6 7 3 4 1 8 3 7 10 12 14 17
29 10 5 2 6 3 2 5 4 4 3 5 1 4 6 5 4 8 8 6 10 10 8 5 4 2 4 3 3 5 5 1 4 2 3 3 5 7 1 6 13 14 15 15 13
18 8 3 6 6 4 2 4 3 3 4 2 1 1 7 8 9 8 8 4 10 13 13 6 6 4 2 4 4 4 9 4 1 7 9 4 4 6 7 12 13 14 14 13 12
4 1 10 10 6 2 5 5 5 5 4 2 2 3 1 3 8 7 6 4 4 7 7 9 7 4 4 5 8 4 4 3 1 2 6 8 4 3 3 5 7 8 10 10 12
4 2 2 6 2 1 3 4 1 3 3 2 2 3 3 1 4 6 8 4 2 9 10 8 5 12 17 5 1 3 4 5 8 7 1 2 4 4 2 4 5 6 6 6 7
3 2 3 3 3 3 2 2 3 2 2 1 3 4 1 2 3 5 5 4 4 8 9 10 5 6 5 5 3 7 7 7 4 3 8 6 4 4 4 7 6 4 4 3 5
2 1 1 2 1 1 3 2 2 3 4 4 3 2 2 3 3 1 4 3 2 2 5 8 4 5 8 1 1 4 9 9 8 6 7 9 5 8 8 7 5 3 4 4 6
2 2 3 2 2 2 2 1 2 2 3 3 3 9 6 3 3 4 3 1 2 3 3 2 3 3 3 3 3 3 5 8 10 9 9 10 10 13 10 7 4 3 5 6 8
3 2 2 1 2 2 3 4 4 2 3 4 8 2 6 5 6 7 7 3 3 4 3 1 3 2 3 0 1 5 9 11 12 7 9 5 7 6 7 7 5 5 6 9 9
4 1 2 1 1 2 2 2 3 1 4 10 6 6 8 11 11 12 5 4 2 4 4 2 5 3 8 2 4 10 10 10 5 5 7 10 5 13 9 8 6 6 6 8 9
Wind_Direction
0 353 344 340 339 339 339 338 336 334 331 332 330 330 330 323 323 296 237 217 205 191 154 100 42 132 125 87 43 80 47 48 51 50 25 161 183 138 95 141 167 130 123 130 148
354 347 341 338 335 336 334 333 332 327 327 327 329 329 329 325 321 247 221 190 147 153 140 80 82 135 94 71 27 339 90 311 328 296 325 200 192 162 156 161 164 114 95 135 148
359 356 350 344 339 335 333 329 327 324 323 324 327 329 328 330 274 293 197 171 167 150 114 98 109 320 272 303 24 84 91 185 237 266 313 204 195 171 171 194 202 184 149 153 158
2 358 350 344 338 332 329 323 322 319 319 321 325 328 329 348 339 340 161 161 160 153 125 116 98 50 288 293 192 278 245 239 254 206 249 279 156 195 203 184 173 168 161 159 170
1 356 350 346 340 334 326 320 317 314 314 317 322 327 342 288 259 319 157 156 161 160 137 105 83 123 322 293 270 223 318 239 246 236 256 229 206 199 220 98 127 146 162 169 176
357 352 349 345 343 337 327 319 312 310 308 311 315 326 340 278 313 174 163 163 175 154 142 169 23 38 275 292 306 326 303 291 288 175 195 205 203 186 115 131 138 156 172 175 180
353 350 346 342 339 335 326 317 309 306 302 299 295 322 243 260 321 170 173 176 173 140 96 33 340 329 341 310 339 305 325 340 30 326 202 165 191 224 147 153 154 171 177 182 190
349 347 343 339 336 332 329 320 310 301 290 268 231 349 259 267 299 183 177 142 164 190 74 11 194 347 295 292 339 337 6 8 17 281 314 232 309 226 168 166 168 176 183 189 193
347 343 342 338 333 330 329 319 316 323 173 158 134 236 269 280 234 207 183 126 157 158 165 86 45 18 281 359 53 27 333 343 340 291 240 238 285 30 181 196 188 185 187 194 200
345 341 340 337 332 330 327 318 46 92 126 126 209 274 229 165 176 189 188 124 100 124 137 147 90 257 64 5 29 320 345 325 298 240 230 239 266 286 200 211 211 197 199 200 202
344 339 338 336 333 331 329 228 243 195 202 222 190 273 305 321 195 172 157 155 76 322 215 81 110 244 266 240 282 293 265 286 296 285 250 231 271 283 232 226 224 215 210 211 214
344 338 336 335 332 335 25 73 92 29 298 236 246 268 262 308 315 148 155 159 185 201 168 168 237 238 219 268 282 22 13 10 285 51 267 326 279 299 279 257 238 226 222 226 222
344 339 335 334 330 342 320 156 201 345 260 277 205 209 216 175 214 209 181 154 175 177 196 221 146 161 275 332 41 106 20 5 324 336 112 300 270 338 19 296 257 234 235 231 227
344 339 334 335 331 327 276 160 312 178 289 241 215 233 167 164 225 193 183 171 170 200 189 236 173 178 139 323 10 87 242 321 339 5 342 351 323 293 337 339 331 322 241 236 229
344 338 330 329 298 254 151 330 115 181 282 132 172 33 151 188 138 184 186 169 185 176 188 181 155 160 307 155 85 312 347 358 358 148 292 48 280 324 4 341 338 335 329 309 260
340 334 326 314 273 253 296 337 162 232 249 116 139 167 162 195 155 121 172 135 129 159 238 243 347 242 208 217 279 323 186 82 104 193 268 48 305 277 46 330 319 325 332 338 329
335 328 304 254 239 190 336 167 193 223 342 114 178 172 188 175 165 163 175 185 190 184 219 195 226 243 216 229 166 204 219 282 261 269 298 124 273 275 159 1 325 332 344 349 350
332 324 295 241 179 279 162 144 222 244 259 338 33 136 195 163 195 148 147 193 189 157 140 222 232 191 166 220 257 174 229 250 274 269 304 180 238 221 145 49 14 13 1 5 8
332 325 298 344 236 205 175 203 235 220 323 321 259 178 189 184 191 186 201 208 204 187 211 184 250 287 229 173 195 144 203 52 120 74 253 296 261 264 155 35 28 22 19 20 24
330 334 332 310 165 156 163 230 246 233 319 288 295 250 186 178 181 188 178 190 200 190 210 194 257 206 174 173 67 251 141 185 193 243 259 226 267 262 352 353 16 26 23 23 32
339 281 353 124 122 120 206 227 252 251 240 326 332 311 285 186 205 181 201 194 199 179 198 181 225 193 200 202 223 145 181 75 163 278 254 269 257 187 300 358 27 38 36 46 58
333 180 17 346 140 340 185 200 238 274 220 268 251 261 254 207 168 189 203 232 123 153 165 189 218 245 252 272 280 230 239 215 239 202 230 294 253 157 166 105 92 74 51 69 46
355 309 12 335 193 194 225 242 244 257 268 272 267 235 124 297 234 191 198 144 156 165 165 170 210 235 224 166 152 214 195 183 148 176 186 217 240 161 165 135 108 97 70 44 351
308 176 96 76 26 171 161 200 251 220 256 240 274 249 223 255 211 284 208 155 52 123 66 149 153 228 247 19 15 221 188 176 206 209 196 224 215 188 185 161 121 82 62 47 20
8 52 346 173 189 250 248 194 247 261 231 229 220 230 203 232 198 213 215 211 92 106 72 227 220 205 268 238 238 260 221 194 210 233 228 259 218 190 183 163 118 57 57 63 35
13 351 354 288 292 229 197 205 203 256 235 244 231 248 211 234 223 209 187 219 189 139 143 149 177 190 263 319 326 276 260 249 235 229 245 242 219 168 143 135 125 76 69 65 55
3 290 280 56 207 195 230 205 195 13 242 251 291 304 264 257 267 254 262 301 313 182 146 146 144 166 263 358 315 266 263 237 223 217 223 197 218 166 164 148 120 94 80 68 60
Height
800 798 796 794 791 789 787 785 783 781 779 777 775 773 771 768 766 765 763 759 758 761 762 762 762 763 763 763 764 766 780 785 783 780 775 766 769 767 767 773 773 774 775 778 789
800 798 795 793 790 788 786 783 781 780 778 776 773 771 769 765 763 760 755 755 758 760 762 762 762 762 765 766 766 772 778 777 766 764 768 763 764 766 773 775 776 778 781 785 790
799 797 794 791 789 787 785 782 780 778 777 775 772 770 767 764 762 753 752 755 758 760 761 762 763 762 768 766 768 771 775 766 763 757 757 761 761 759 768 778 767 772 781 786 789
799 796 793 790 788 785 783 781 779 777 775 773 771 769 766 764 776 753 752 755 758 760 762 763 763 768 773 774 768 776 763 762 758 754 757 759 754 761 759 757 755 763 772 780 786
798 795 792 789 786 783 781 779 777 775 773 771 770 768 766 765 758 753 754 756 758 760 761 762 765 768 774 770 770 774 762 758 753 755 753 752 755 755 756 754 756 766 775 778 783
797 794 791 788 785 782 779 777 775 773 771 770 769 768 768 769 753 753 754 756 757 760 761 761 762 762 768 769 771 761 760 756 749 751 749 754 754 753 754 755 763 768 773 776 779
797 794 790 786 782 779 776 774 772 770 769 768 767 767 767 757 752 753 755 756 757 760 760 762 762 763 764 768 761 760 764 751 751 749 747 745 761 756 750 754 763 768 771 775 779
796 793 789 785 781 777 774 771 769 767 766 766 766 767 761 752 751 752 754 757 759 760 761 763 763 763 764 760 762 769 766 775 753 751 746 749 763 747 746 751 760 765 770 773 774
795 791 787 783 778 774 771 768 765 764 764 765 767 766 759 752 751 751 754 756 759 761 762 764 763 768 765 775 777 775 788 779 768 750 752 757 757 749 746 749 756 760 764 768 771
792 788 784 780 776 771 768 765 765 764 765 766 766 769 753 751 749 749 753 756 757 759 763 765 768 774 777 777 800 792 786 777 778 760 756 760 756 752 749 748 750 757 761 763 764
790 786 781 777 772 768 765 765 767 766 764 754 754 753 749 748 748 749 751 756 759 761 773 770 782 787 775 774 774 779 784 785 766 754 761 760 758 743 744 749 751 753 755 756 757
789 784 779 775 770 766 765 764 765 769 764 750 751 751 749 750 753 748 751 757 766 776 772 779 787 769 768 769 773 777 779 776 762 756 758 762 757 745 741 742 745 748 749 748 751
787 782 777 772 768 766 765 765 764 766 767 750 746 746 744 747 750 747 746 751 761 774 773 780 771 765 767 769 770 775 776 773 776 761 759 763 760 754 742 743 740 739 738 740 742
785 780 774 769 769 766 764 764 762 763 773 756 748 739 740 740 748 737 740 745 758 768 771 772 762 771 768 770 765 776 765 765 765 767 785 768 792 763 751 745 739 732 733 733 734
782 777 772 769 767 765 764 763 761 763 798 748 745 733 736 739 735 741 737 741 756 762 766 769 768 774 772 765 760 771 762 768 768 773 778 777 785 762 758 754 742 731 729 726 725
777 773 768 766 765 762 762 761 763 781 796 751 739 743 744 739 738 738 740 738 741 757 760 760 753 757 756 753 755 754 766 771 776 775 794 789 789 772 763 762 747 736 731 726 724
771 767 764 764 761 759 760 762 782 792 750 754 748 742 743 745 744 740 748 753 758 777 775 765 761 750 749 762 757 760 766 791 798 796 801 789 789 763 757 753 751 747 739 730 722
765 759 756 757 757 758 759 765 795 766 760 742 744 747 750 744 742 744 752 758 755 756 771 775 780 757 747 751 757 761 760 786 816 808 794 794 787 758 748 748 749 746 742 735 727
760 755 754 754 754 757 759 778 768 765 752 751 745 750 750 742 742 745 750 753 746 749 769 777 777 750 748 743 746 770 774 763 790 806 797 777 766 746 746 747 748 746 740 737 733
759 756 755 753 752 757 762 774 765 757 751 748 755 747 751 746 745 748 752 740 743 739 735 756 779 755 747 744 752 754 756 778 781 804 808 786 790 767 756 755 753 752 750 745 739
760 754 755 752 755 756 766 766 762 750 751 752 752 751 747 746 741 747 747 737 734 743 741 746 757 761 751 754 754 765 766 776 771 779 786 794 775 758 761 760 761 757 754 750 745
763 755 757 755 759 774 764 763 759 750 745 745 746 746 746 743 747 748 744 740 730 734 749 744 749 763 755 738 745 745 752 755 772 791 786 782 770 750 754 754 756 757 755 752 749
768 764 758 757 760 763 763 758 754 750 748 747 747 744 742 744 749 742 742 728 729 731 740 743 757 767 759 754 753 752 750 749 758 760 779 777 764 750 750 754 757 758 754 752 750
769 759 758 758 765 759 758 757 755 747 747 744 744 741 742 742 741 743 738 729 728 730 738 732 750 749 758 754 752 755 749 748 743 761 761 758 752 757 752 753 758 760 757 756 754
772 770 773 760 760 759 757 757 756 755 747 745 745 744 740 747 745 743 738 732 729 737 736 733 748 755 747 751 749 748 746 749 752 741 755 741 751 744 747 752 754 759 758 757 757
775 776 772 768 768 764 762 755 755 751 750 746 747 736 742 744 736 738 733 736 730 733 736 739 753 754 751 748 751 753 744 744 745 750 751 751 749 739 747 750 754 759 759 759 760
784 783 780 771 765 764 756 752 751 754 744 741 743 745 742 735 728 723 724 725 725 728 738 740 751 758 762 758 756 761 744 742 742 746 740 754 734 741 750 753 755 756 757 759 759